Location: Kalberh�ni
(46.4610°N, 7.2453°E)
Time: 16:55:49
(UTC+00:00)

Meteor 2-1 Rocket - Pass Details

Date: 27 October 2021
Orbit: 830 x 906 km, 81.3° (Epoch: 28 November)

Event Time Altitude Azimuth Distance (km) Brightness Sun altitude
Rises 21:01:19 0° 254° (WSW) 3,406 7.7 -46.4°
Enters shadow 21:03:24 - 267° (W) 2,889 7.4 -46.7°
Exits shadow 21:09:04 - 322° (NW) 2,504 7.2 -47.4°
Sets 21:13:27 0° 355° (N) 3,389 7.8 -48.0°
